Overview Statistics Trail Chart Weather Telemetry Raw packets
 

This is the latest recevied weather packets stored in our database for station/object KB0VMZ. If no packets are shown the sender has not sent any weather packets the latest 10 day(s).

<< 53 54 55 56 57 >>
Time Temp. Humidity Pressure Rain* Wind** Luminosity Snow
1787773854 34.44° C 100% 0 hPa 0 mm 1.79 m/s, 90° - -
1787773254 34.44° C 100% 0 hPa 0 mm 0.89 m/s, 45° - -
1787772654 33.33° C 100% 0 hPa 0 mm 0.45 m/s, 90° - -
1787772054 32.78° C 100% 0 hPa 0 mm 1.34 m/s, 22° - -
1787771454 32.78° C 100% 0 hPa 0 mm 0.89 m/s, 45° - -
1787770854 32.22° C 100% 0 hPa 0 mm 0.45 m/s, 135° - -
1787770254 31.67° C 100% 0 hPa 0 mm 0.89 m/s, 270° - -
1787769655 32.78° C 100% 0 hPa 0 mm 1.34 m/s, 90° - -
1787769055 33.33° C 100% 0 hPa 0 mm 1.34 m/s, 90° - -
1787768455 31.67° C 100% 0 hPa 0 mm 0.45 m/s, 135° - -
1787767855 31.67° C 100% 0 hPa 0 mm 0.45 m/s, 90° - -
1787767257 31.67° C 100% 0 hPa 0 mm 0.45 m/s, 22° - -
1787766655 31.11° C 100% 0 hPa 0 mm 0.89 m/s, 90° - -
1787766055 32.78° C 100% 0 hPa 0 mm 1.79 m/s, 45° - -
1787765455 33.89° C 100% 0 hPa 0 mm 0.89 m/s, 45° - -
1787764855 34.44° C 100% 0 hPa 0 mm 0.89 m/s, 270° - -
1787764255 33.33° C 100% 0 hPa 0 mm 0 m/s - -
1787763655 32.22° C 100% 0 hPa 0 mm 0.89 m/s, 45° - -
1787763055 32.78° C 100% 0 hPa 0 mm 0.89 m/s, 0° - -
1787762455 32.22° C 100% 0 hPa 0 mm 0.45 m/s, 90° - -
1787761855 31.67° C 100% 0 hPa 0 mm 0 m/s - -
1787761255 30.56° C 100% 0 hPa 0 mm 0.89 m/s, 315° - -
1787760655 31.67° C 100% 0 hPa 0 mm 0.89 m/s, 0° - -
1787760055 31.67° C 100% 0 hPa 0 mm 0.89 m/s, 0° - -
1787759455 30.56° C 100% 0 hPa 0 mm 0.45 m/s, 135° - -

* Rain latest hour (hover to see other rain measurements)
** Current wind speed in m/s (hover to see current wind gust speed)